Wind_Speed
4 5 6 6 7 8 10 10 13 14 15 17 17 18 19 17 19 22 23 24 24 25 25 25 25 24 25 26 26 27 27 27 27 28 27 28 28 29 29 29 30 29 29 30
3 6 7 9 9 9 11 12 14 14 15 18 18 18 19 18 20 22 24 25 24 25 26 26 26 26 26 26 27 26 27 28 28 29 29 29 29 29 29 29 30 30 31 31
5 10 11 10 9 10 10 11 14 15 16 17 17 19 19 21 22 23 24 25 25 25 26 27 27 28 28 28 28 28 29 29 30 30 30 31 31 31 31 30 31 31 31 31
8 10 10 10 10 11 11 13 15 16 16 15 16 18 20 21 23 24 24 25 25 26 27 27 28 28 29 29 29 29 30 30 30 31 31 32 32 32 32 31 30 30 30 30
7 10 10 10 11 12 13 15 15 15 15 16 16 19 22 22 23 25 26 25 25 28 29 28 27 28 29 29 28 29 29 30 31 31 31 32 32 32 31 31 31 31 30 31
9 11 12 12 13 13 14 15 14 14 15 18 19 22 22 21 23 25 25 25 26 27 27 26 27 28 28 28 28 29 29 30 31 32 32 32 32 32 32 32 31 31 31 30
10 11 13 13 13 13 14 13 14 15 16 19 19 20 21 21 24 25 26 26 27 26 27 26 26 26 26 26 27 28 29 30 30 31 31 31 31 32 32 32 32 32 31 31
11 12 13 14 14 14 13 12 15 17 16 18 18 19 20 22 22 24 26 27 27 27 26 25 25 25 25 26 26 27 27 28 29 30 30 30 31 31 31 32 32 32 32 31
12 12 12 14 14 14 13 13 15 18 18 18 17 20 23 24 22 23 25 27 27 26 25 25 25 24 24 25 26 26 27 28 29 29 29 29 30 30 31 31 32 31 30 30
14 14 13 13 13 13 14 15 14 16 18 19 18 21 23 24 24 22 23 25 25 24 23 23 23 24 24 25 26 26 27 28 29 29 29 29 29 28 28 29 30 29 28 29
15 15 13 12 12 13 15 15 16 17 18 19 20 21 22 24 24 24 24 23 23 23 23 23 24 24 25 26 26 26 27 28 28 28 28 28 27 27 28 28 28 28 28 29
15 15 14 13 13 14 14 15 16 18 18 19 20 20 19 22 22 23 23 22 23 23 23 22 22 23 24 24 25 25 26 26 26 26 26 26 27 27 28 27 27 28 29 29
15 15 15 13 13 13 14 15 15 17 16 17 19 20 21 21 22 23 22 22 23 23 22 22 22 22 23 24 24 24 24 24 25 25 25 25 26 26 26 26 26 26 27 28
16 15 15 15 15 14 13 13 15 16 16 18 19 20 20 21 21 21 20 21 22 22 21 21 21 22 22 23 23 23 23 24 24 24 24 24 25 25 25 25 25 25 25 24
17 17 16 15 15 14 14 14 15 16 17 18 19 21 20 20 19 20 21 20 20 21 20 21 21 21 22 22 22 22 22 23 23 23 22 23 23 23 22 23 22 22 23 22
18 18 17 17 16 15 16 15 16 17 18 18 19 20 18 18 19 20 20 19 19 19 19 20 20 21 22 22 22 22 22 22 22 22 21 21 21 20 21 21 21 21 20 20
18 18 18 17 17 17 16 15 15 16 16 17 17 18 18 17 18 18 18 17 17 18 19 20 20 20 21 21 21 21 21 21 21 20 20 20 19 19 19 20 20 19 19 19
18 18 18 17 17 17 15 14 15 17 17 17 16 18 17 17 16 16 16 15 16 17 19 20 20 20 20 20 20 20 20 20 19 19 18 18 18 18 18 19 19 17 17 17
18 18 18 18 18 18 16 14 14 17 17 17 16 16 16 16 15 14 14 14 15 16 18 19 19 19 19 19 18 19 19 19 18 18 17 17 17 17 17 17 17 16 16 16
17 18 18 18 18 18 16 15 14 15 15 15 15 14 14 14 14 13 13 14 15 16 17 18 18 18 17 17 17 17 18 18 18 17 16 16 16 16 16 15 15 15 14 14
17 18 18 18 18 17 15 14 14 14 14 14 13 14 14 13 12 13 13 14 14 15 16 17 17 17 16 16 15 15 16 17 17 16 15 15 16 15 15 13 13 13 14 13
18 18 17 17 16 16 14 14 13 13 13 12 13 13 12 12 11 12 12 13 13 14 15 15 15 15 15 15 14 14 15 16 16 16 16 15 15 13 13 12 13 13 13 12
17 17 17 17 16 15 14 13 13 12 12 12 11 11 11 11 10 11 11 12 12 13 13 14 14 14 14 14 14 15 15 15 15 16 15 15 14 13 13 12 13 12 12 12
17 17 17 16 16 14 13 12 12 11 12 11 10 10 10 10 10 10 10 11 12 13 13 14 14 14 14 14 14 15 15 15 15 15 15 14 14 14 13 13 12 12 12 12
17 17 16 15 13 13 13 11 11 11 10 10 10 9 9 9 9 9 10 10 11 12 12 13 13 13 13 14 14 15 15 15 15 14 14 14 15 15 14 13 13 12 13 13
17 17 17 16 13 13 12 11 11 10 10 10 9 8 8 8 8 8 8 8 9 10 10 12 13 13 14 14 14 15 15 14 14 14 14 14 15 15 15 14 13 13 14 14
Wind_Direction
202 220 227 231 224 235 236 234 240 250 252 259 270 270 269 269 273 276 279 278 277 280 280 279 280 283 285 286 286 284 284 285 285 286 286 287 285 284 287 287 285 284 282 281
225 251 241 237 239 235 240 238 250 253 255 259 263 270 271 276 278 276 279 280 279 280 284 286 284 284 283 285 285 284 284 285 285 285 287 288 288 287 289 289 289 286 284 281
238 245 243 240 242 243 250 250 254 252 257 267 269 270 273 274 278 275 278 281 283 284 284 284 283 282 283 284 284 284 284 285 285 286 286 286 287 288 288 288 287 287 284 281
234 250 250 249 250 247 249 253 257 259 258 262 267 272 275 277 277 279 283 287 285 287 286 285 283 283 284 284 284 284 285 285 284 285 286 286 286 287 288 288 287 286 285 282
247 255 250 249 254 252 251 252 259 264 267 265 268 269 274 277 278 283 288 290 290 290 290 288 287 287 285 285 284 285 286 285 287 286 286 288 288 288 288 288 286 285 284 282
259 264 261 257 254 256 256 258 261 262 265 266 269 269 271 273 282 287 289 293 293 293 292 289 289 288 286 285 285 286 286 287 288 288 287 287 288 288 288 287 285 284 284 283
265 270 271 269 266 265 264 267 270 273 272 273 273 271 270 274 282 286 290 294 295 295 293 291 288 285 285 286 287 288 288 288 288 288 288 288 287 288 288 286 285 283 284 283
268 273 276 276 275 274 270 267 270 272 278 283 283 279 280 282 283 285 289 292 293 294 294 293 290 286 287 287 288 289 289 289 291 290 289 289 288 287 287 287 286 284 283 283
264 265 268 272 273 274 272 265 270 278 279 278 280 284 287 284 285 287 289 292 295 295 294 292 293 291 291 290 290 291 290 290 292 291 290 290 289 288 288 289 288 287 286 286
264 263 262 266 274 275 276 273 266 270 275 275 277 278 281 291 293 292 296 297 296 297 296 295 295 296 296 293 293 292 291 291 292 292 291 291 291 291 292 290 289 288 288 287
269 268 266 264 266 272 279 279 274 270 271 276 280 278 284 291 294 296 301 301 299 296 296 298 298 297 296 296 296 294 293 292 291 292 292 293 293 293 293 294 293 291 290 290
273 273 270 265 267 269 274 277 279 277 274 271 276 284 287 292 295 297 299 302 302 299 299 301 302 302 301 299 298 297 296 294 293 292 291 291 292 294 295 295 294 292 291 291
267 269 273 270 272 271 273 278 283 281 280 278 279 288 289 289 291 293 295 299 301 301 300 302 302 303 304 304 301 300 299 297 297 295 294 294 293 295 297 297 295 294 293 293
262 265 267 269 271 276 277 278 281 282 280 282 283 286 288 290 294 296 301 302 303 304 303 303 304 306 308 309 307 306 304 302 302 302 300 299 298 299 298 299 298 297 296 294
264 264 266 270 273 276 281 281 279 278 279 279 283 285 285 290 297 300 303 303 303 304 304 306 308 309 310 311 311 311 310 309 308 307 305 305 303 301 300 300 300 299 300 299
270 266 270 271 272 273 277 279 276 280 283 284 287 287 287 290 297 301 303 304 306 308 308 310 310 310 311 312 313 314 314 314 313 310 310 309 308 306 304 305 305 306 306 304
269 270 272 273 274 276 278 280 280 282 283 282 285 288 289 295 300 303 305 308 309 311 312 312 312 312 314 315 315 316 317 317 316 314 313 313 312 312 311 310 311 310 309 309
266 268 270 272 274 274 276 278 280 280 282 282 286 292 294 295 304 305 307 311 312 315 316 316 314 313 314 316 317 318 318 319 320 318 316 315 315 313 314 314 316 315 315 313
267 268 269 271 272 273 275 277 277 281 281 282 282 290 297 297 301 304 309 314 317 318 322 322 320 318 317 319 320 320 322 321 322 323 321 320 317 317 318 319 317 319 319 318
268 268 268 270 270 269 272 277 277 281 284 288 288 292 298 300 300 305 312 318 321 322 325 326 326 325 322 320 322 325 327 326 325 325 324 323 322 321 320 321 319 319 320 320
261 264 265 267 270 270 271 275 274 276 283 288 293 296 297 299 303 308 314 319 323 326 328 330 332 335 336 333 328 329 330 330 331 332 331 329 327 326 325 325 325 326 324 323
254 259 261 260 262 264 270 272 272 276 280 286 292 295 301 305 307 311 316 321 325 329 332 335 339 341 343 343 341 339 339 339 340 341 340 336 333 330 330 331 329 328 328 330
249 253 256 256 258 261 264 267 272 275 280 285 292 298 302 307 310 312 317 322 328 331 335 339 343 344 345 346 348 347 347 346 346 347 346 344 343 344 343 339 336 333 333 333
244 248 252 252 254 256 258 265 269 273 280 284 290 296 300 307 312 314 318 323 329 334 338 342 345 348 349 351 352 353 352 353 352 352 353 353 353 351 351 350 347 344 343 342
242 245 249 252 253 251 252 250 260 268 275 278 288 295 300 307 311 314 320 327 333 337 340 345 349 353 354 355 356 355 356 358 0 1 0 359 358 357 356 357 355 354 353 350
239 242 245 247 247 246 248 250 254 262 271 276 283 291 301 308 313 318 323 331 339 343 349 353 356 357 358 359 359 359 359 1 3 4 4 5 4 4 4 1 359 359 359 357
Height
5846 5849 5851 5852 5854 5856 5857 5859 5860 5861 5860 5858 5858 5858 5856 5855 5856 5855 5854 5853 5851 5851 5849 5848 5847 5847 5847 5846 5845 5845 5843 5842 5841 5840 5839 5838 5837 5836 5835 5834 5832 5830 5829 5828
5848 5849 5850 5851 5852 5854 5855 5856 5857 5857 5856 5857 5856 5855 5853 5852 5853 5852 5850 5848 5847 5847 5846 5844 5843 5842 5841 5840 5840 5839 5838 5837 5836 5835 5834 5833 5832 5830 5829 5827 5826 5824 5822 5821
5848 5849 5849 5850 5851 5852 5853 5854 5855 5855 5854 5853 5853 5853 5851 5850 5849 5848 5846 5844 5844 5842 5841 5840 5839 5838 5836 5835 5834 5834 5833 5831 5830 5829 5828 5826 5825 5823 5822 5820 5819 5817 5815 5814
5847 5847 5848 5848 5849 5850 5851 5852 5851 5851 5851 5851 5852 5850 5848 5846 5845 5843 5842 5840 5839 5838 5837 5833 5833 5832 5831 5830 5829 5828 5826 5825 5823 5822 5821 5819 5818 5816 5814 5813 5811 5810 5808 5807
5845 5845 5846 5846 5847 5847 5847 5847 5847 5847 5847 5847 5847 5846 5844 5842 5839 5839 5838 5836 5834 5833 5831 5828 5826 5826 5825 5824 5823 5821 5820 5819 5818 5816 5814 5812 5810 5809 5807 5806 5804 5802 5801 5800
5842 5843 5843 5843 5843 5843 5843 5844 5844 5843 5843 5843 5843 5842 5839 5838 5836 5834 5833 5831 5830 5828 5825 5822 5822 5821 5819 5818 5817 5816 5814 5812 5811 5809 5807 5805 5803 5801 5800 5798 5797 5795 5793 5792
5840 5841 5841 5840 5840 5841 5841 5841 5841 5840 5839 5839 5838 5836 5834 5833 5833 5831 5828 5826 5825 5823 5821 5818 5817 5815 5814 5813 5811 5809 5808 5806 5804 5802 5800 5798 5796 5794 5792 5791 5789 5787 5786 5785
5838 5839 5838 5837 5838 5838 5838 5838 5838 5837 5836 5834 5833 5832 5831 5830 5828 5826 5824 5823 5821 5819 5816 5814 5812 5810 5809 5807 5805 5803 5801 5799 5797 5795 5793 5791 5789 5787 5785 5783 5781 5779 5778 5777
5836 5836 5836 5835 5835 5835 5834 5834 5834 5833 5832 5831 5831 5829 5826 5825 5823 5822 5820 5818 5816 5814 5812 5809 5806 5804 5803 5801 5800 5797 5795 5793 5791 5788 5786 5784 5782 5780 5778 5776 5774 5772 5770 5768
5833 5833 5833 5832 5832 5831 5832 5831 5831 5830 5829 5828 5828 5826 5823 5820 5818 5817 5815 5814 5811 5809 5807 5804 5802 5800 5798 5796 5794 5792 5789 5787 5784 5782 5779 5778 5775 5773 5771 5769 5767 5764 5762 5761
5829 5828 5829 5829 5828 5828 5828 5828 5827 5826 5825 5824 5823 5824 5820 5818 5815 5812 5810 5808 5807 5804 5802 5800 5798 5796 5793 5791 5788 5785 5783 5780 5778 5775 5773 5771 5768 5766 5764 5762 5760 5757 5755 5754
5825 5825 5824 5825 5825 5825 5824 5824 5823 5822 5821 5820 5819 5819 5815 5814 5811 5809 5807 5804 5802 5800 5797 5796 5793 5790 5788 5785 5782 5779 5777 5774 5772 5769 5766 5764 5762 5760 5757 5755 5753 5750 5748 5746
5821 5821 5821 5821 5823 5822 5820 5820 5819 5818 5817 5816 5815 5816 5811 5809 5807 5805 5802 5800 5798 5796 5793 5791 5788 5786 5783 5780 5776 5773 5771 5768 5765 5762 5760 5757 5755 5753 5750 5748 5745 5743 5741 5739
5816 5816 5818 5818 5817 5817 5816 5816 5815 5814 5813 5812 5811 5810 5807 5805 5803 5799 5797 5796 5793 5791 5789 5786 5784 5781 5778 5775 5771 5768 5765 5762 5759 5756 5753 5751 5748 5746 5744 5741 5739 5736 5734 5732
5812 5813 5812 5813 5813 5813 5812 5812 5811 5810 5809 5808 5807 5805 5803 5801 5798 5796 5794 5792 5789 5787 5785 5782 5779 5776 5773 5770 5766 5763 5759 5756 5753 5750 5748 5745 5743 5740 5738 5735 5733 5731 5729 5726
5807 5808 5808 5809 5809 5809 5809 5808 5808 5806 5805 5804 5803 5801 5799 5796 5795 5793 5790 5788 5785 5783 5781 5778 5775 5772 5769 5765 5762 5758 5755 5752 5748 5745 5742 5740 5737 5735 5733 5730 5728 5725 5723 5721
5804 5804 5805 5805 5805 5804 5804 5804 5804 5803 5801 5800 5798 5798 5795 5793 5791 5789 5787 5784 5782 5780 5777 5774 5771 5768 5765 5761 5758 5754 5751 5748 5744 5741 5738 5736 5733 5731 5728 5726 5723 5721 5719 5717
5800 5800 5800 5800 5801 5800 5802 5800 5800 5798 5797 5796 5794 5794 5792 5790 5788 5786 5784 5782 5780 5777 5774 5770 5767 5764 5761 5757 5754 5751 5747 5744 5741 5738 5735 5732 5730 5727 5725 5722 5720 5717 5715 5714
5795 5795 5795 5796 5796 5796 5797 5797 5796 5795 5794 5792 5791 5791 5789 5787 5785 5784 5781 5779 5777 5774 5771 5767 5764 5760 5757 5754 5751 5747 5744 5741 5738 5735 5732 5730 5727 5724 5722 5719 5717 5714 5713 5710
5790 5790 5791 5791 5791 5791 5794 5793 5792 5792 5789 5789 5788 5787 5786 5784 5783 5782 5779 5777 5774 5772 5768 5765 5761 5758 5754 5751 5748 5745 5742 5738 5736 5733 5730 5727 5724 5721 5719 5716 5714 5712 5710 5707
5786 5786 5787 5786 5786 5787 5789 5789 5790 5790 5789 5787 5785 5785 5783 5782 5781 5779 5777 5775 5772 5769 5766 5763 5760 5756 5752 5749 5746 5743 5740 5737 5734 5731 5728 5725 5722 5719 5716 5714 5712 5709 5707 5705
5782 5782 5782 5783 5783 5786 5786 5786 5786 5786 5785 5784 5783 5782 5781 5779 5778 5777 5775 5773 5770 5768 5765 5762 5758 5755 5751 5748 5744 5741 5738 5735 5732 5729 5726 5723 5720 5717 5714 5712 5710 5707 5705 5703
5777 5778 5778 5779 5781 5782 5782 5783 5783 5783 5783 5782 5780 5780 5779 5778 5776 5775 5773 5771 5769 5766 5764 5760 5757 5754 5751 5747 5744 5741 5738 5734 5731 5728 5725 5722 5719 5716 5713 5711 5708 5706 5704 5702
5772 5773 5774 5775 5776 5777 5779 5780 5780 5780 5780 5779 5779 5778 5777 5776 5775 5773 5772 5770 5768 5765 5763 5760 5757 5753 5750 5747 5744 5741 5737 5734 5731 5728 5725 5722 5719 5716 5713 5711 5708 5706 5703 5701
5768 5769 5770 5771 5773 5774 5776 5776 5777 5777 5777 5777 5777 5776 5776 5775 5774 5772 5771 5769 5767 5764 5762 5759 5756 5753 5750 5747 5744 5740 5737 5734 5731 5728 5725 5722 5719 5716 5713 5710 5708 5706 5703 5700
5764 5765 5767 5768 5770 5771 5773 5773 5774 5775 5775 5775 5775 5775 5774 5773 5772 5771 5770 5768 5766 5764 5761 5759 5756 5753 5750 5747 5744 5741 5737 5734 5731 5728 5725 5722 5720 5717 5714 5711 5708 5706 5703 5700